EW1269 Weather Reports


time (UTC)temp
C
wind
direction
speed
KPH
gust
KPH
rain 1hr
cm
rain 24hr
cm
rain mn
cm
humidity
%
barometer
mb
20260503212322 25 295 16.1 22.5 0.00 0.00 0.00 48 1013.1
20260503211338 25 315 14.5 22.5 0.00 0.00 0.00 46 1013.3
20260503210343 25 307 14.5 22.5 0.00 0.00 0.00 46 1013.3
20260503205340 25 360 11.3 25.7 0.00 0.00 0.00 46 1013.4
20260503204331 25 320 14.5 20.9 0.00 0.00 0.00 49 1013.5
20260503203322 25 5 6.4 20.9 0.00 0.00 0.00 50 1013.6
20260503202342 25 13 11.3 20.9 0.00 0.00 0.00 50 1013.7
20260503201352 25 295 9.7 16.1 0.00 0.00 0.00 51 1013.7
20260503200346 24 315 9.7 14.5 0.00 0.00 0.00 54 1013.8
20260503195342 24 308 9.7 17.7 0.00 0.00 0.00 54 1014.1
20260503194359 23 338 4.8 17.7 0.00 0.00 0.00 54 1014.3
20260503193354 23 316 12.9 20.9 0.00 0.00 0.00 54 1014.4
20260503192323 23 344 12.9 20.9 0.00 0.00 0.00 52 1014.5
20260503191335 23 360 8.0 17.7 0.00 0.00 0.00 52 1014.5
20260503190324 23 300 9.7 17.7 0.00 0.00 0.00 52 1014.6
20260503185334 22 348 11.3 16.1 0.00 0.00 0.00 53 1014.6
20260503184342 22 322 9.7 17.7 0.00 0.00 0.00 55 1014.8
20260503183351 22 311 11.3 19.3 0.00 0.00 0.00 54 1014.9
20260503182341 22 299 11.3 19.3 0.00 0.00 0.00 55 1015.0
20260503181337 22 341 11.3 17.7 0.00 0.00 0.00 59 1015.1
20260503180341 22 319 9.7 17.7 0.00 0.00 0.00 61 1015.1
20260503175344 21 296 11.3 20.9 0.00 0.00 0.00 63 1015.2
20260503174334 21 327 9.7 16.1 0.00 0.00 0.00 66 1015.2
20260503173343 21 341 11.3 17.7 0.00 0.00 0.00 65 1015.2
20260503172317 21 330 8.0 14.5 0.00 0.00 0.00 66 1015.3
20260503171317 21 296 6.4 14.5 0.00 0.00 0.00 63 1015.4
20260503170336 20 323 6.4 12.9 0.00 0.00 0.00 65 1015.6
20260503150316 15 349 4.8 6.4 0.00 0.00 0.00 82 1016.1
20260503140315 8 355 0.0 0.0 0.00 0.00 0.00 96 1016.0
20260503131318 8 355 0.0 0.0 0.00 0.00 0.00 95 1015.8
20260503130326 8 355 0.0 0.0 0.00 0.00 0.00 95 1015.8
20260503110338 9 355 0.0 0.0 0.00 0.00 0.00 93 1016.0
20260503090317 10 355 0.0 0.0 0.00 0.00 0.00 89 1016.1
20260503081338 11 355 0.0 0.0 0.00 0.00 0.00 87 1016.1
20260503080347 11 355 0.0 0.0 0.00 0.00 0.00 86 1016.2
20260503072320 12 355 0.0 0.0 0.00 0.00 0.00 84 1016.1
20260503071315 12 355 0.0 0.0 0.00 0.00 0.00 82 1016.0
20260503070329 12 355 0.0 0.0 0.00 0.00 0.00 81 1015.9
20260503060315 15 17 0.0 0.0 0.00 0.00 0.00 72 1015.8
20260503054337 16 17 0.0 3.2 0.00 0.00 0.00 68 1015.8
20260503053323 16 322 0.0 0.0 0.00 0.00 0.00 65 1015.7
20260503052332 17 322 0.0 4.8 0.00 0.00 0.00 63 1015.7
20260503051320 17 346 4.8 8.0 0.00 0.00 0.00 62 1015.5
20260503050329 17 319 4.8 9.7 0.00 0.00 0.00 61 1015.5
20260503045339 17 5 4.8 9.7 0.00 0.00 0.00 60 1015.4
20260503044326 18 355 4.8 12.9 0.00 0.00 0.00 60 1015.3
20260503043318 18 317 6.4 14.5 0.00 0.00 0.00 60 1015.3
20260503042351 18 5 9.7 17.7 0.00 0.00 0.00 59 1015.1
20260503041316 18 327 6.4 14.5 0.00 0.00 0.00 59 1015.0
20260503040325 18 336 11.3 16.1 0.00 0.00 0.00 59 1014.9
20260503035334 19 319 12.9 19.3 0.00 0.00 0.00 58 1014.7
20260503034347 19 328 11.3 19.3 0.00 0.00 0.00 58 1014.5
20260503033359 19 331 9.7 19.3 0.00 0.00 0.00 57 1014.4
20260503032323 20 323 9.7 16.1 0.00 0.00 0.00 56 1014.2
20260503031316 20 348 12.9 19.3 0.00 0.00 0.00 55 1014.3
20260503030322 20 341 9.7 17.7 0.00 0.00 0.00 54 1014.2
20260503025334 20 302 11.3 17.7 0.00 0.00 0.00 53 1014.1
20260503024326 21 315 9.7 22.5 0.00 0.00 0.00 53 1014.1
20260503023315 21 314 12.9 20.9 0.00 0.00 0.00 52 1014.1
20260503022330 21 338 14.5 20.9 0.00 0.00 0.00 51 1014.0
20260503021344 21 311 12.9 20.9 0.00 0.00 0.00 50 1014.0
20260503020325 21 319 11.3 24.1 0.00 0.00 0.00 50 1014.1
20260503015335 21 320 14.5 27.4 0.00 0.00 0.00 50 1014.1
20260503014325 21 317 16.1 24.1 0.00 0.00 0.00 49 1014.2
20260503013326 22 346 19.3 27.4 0.00 0.00 0.00 47 1014.4
20260503012334 22 306 17.7 24.1 0.00 0.00 0.00 46 1014.5
20260503011322 22 296 19.3 29.0 0.00 0.00 0.00 46 1014.5
20260503010332 22 346 20.9 30.6 0.00 0.00 0.00 46 1014.6
20260503005341 22 326 22.5 30.6 0.00 0.00 0.00 45 1014.6
20260503004319 22 327 20.9 32.2 0.00 0.00 0.00 47 1014.7
20260503003322 22 308 14.5 24.1 0.00 0.00 0.00 54 1014.6
20260503002324 23 284 14.5 22.5 0.00 0.00 0.00 55 1014.7
20260503001328 23 327 12.9 22.5 0.00 0.00 0.00 55 1014.8
20260503000325 23 294 11.3 24.1 0.00 0.00 0.00 56 1014.9
20260502235339 22 288 12.9 25.7 0.00 0.00 0.00 57 1014.9
20260502234328 23 313 12.9 25.7 0.00 0.00 0.00 56 1014.9
20260502233316 23 330 14.5 22.5 0.00 0.00 0.00 56 1015.0
20260502232331 22 305 12.9 22.5 0.00 0.00 0.00 58 1015.2
20260502231334 23 317 12.9 20.9 0.00 0.00 0.00 58 1015.3
20260502230345 23 338 14.5 20.9 0.00 0.00 0.00 59 1015.4
20260502225339 22 303 12.9 19.3 0.00 0.00 0.00 61 1015.4
20260502224323 22 341 14.5 24.1 0.00 0.00 0.00 61 1015.6
20260502223326 22 306 11.3 22.5 0.00 0.00 0.00 62 1015.7
20260502222333 22 336 12.9 22.5 0.00 0.00 0.00 62 1015.9
20260502221333 22 299 17.7 27.4 0.00 0.00 0.00 62 1016.0
20260502220320 22 332 17.7 29.0 0.00 0.00 0.00 63 1016.0
20260502215328 22 309 16.1 25.7 0.00 0.00 0.00 64 1016.1
20260502214337 22 346 17.7 29.0 0.00 0.00 0.00 63 1016.2
20260502213319 22 311 14.5 22.5 0.00 0.00 0.00 63 1016.3